FW2595 Weather Reports


time (UTC)temp
F
wind
direction
speed
knots
gust
knots
rain 1hr
in
rain 24hr
in
rain mn
in
humidity
%
barometer
mb
20260503193045 60 160 2.6 7.0 0.00 0.00 0.00 83 1013.6
20260503191544 60 130 1.7 6.1 0.00 0.00 0.00 83 1013.8
20260503190041 60 191 1.7 7.8 0.00 0.00 0.00 83 1013.7
20260503184538 60 192 2.6 7.0 0.00 0.00 0.00 81 1013.7
20260503183036 61 150 1.7 5.2 0.00 0.00 0.00 80 1013.6
20260503181535 61 162 0.9 4.3 0.00 0.00 0.00 81 1013.5
20260503180033 60 214 1.7 5.2 0.00 0.00 0.00 83 1013.5
20260503174530 59 197 0.0 3.5 0.00 0.00 0.00 84 1013.4
20260503173030 58 234 0.9 4.3 0.00 0.00 0.00 84 1013.6
20260503171527 58 181 0.0 4.3 0.00 0.00 0.00 84 1013.4
20260503110109 54 292 0.0 1.7 0.00 0.00 0.00 90 1011.0
20260503081538 56 69 0.0 0.0 0.00 0.00 0.00 85 1011.7
20260503071548 56 55 0.9 2.6 0.00 0.00 0.00 84 1011.6
20260503054535 56 153 0.0 0.0 0.00 0.00 0.00 85 1011.9
20260503053033 56 173 0.0 0.0 0.00 0.00 0.00 85 1012.0
20260503051529 56 173 0.0 0.0 0.00 0.00 0.00 85 1012.0
20260503050037 56 131 0.0 2.6 0.00 0.00 0.00 85 1012.0
20260503044531 56 134 0.0 1.7 0.00 0.00 0.00 85 1012.0
20260503043030 57 128 0.0 2.6 0.00 0.00 0.00 86 1011.7
20260503041535 56 282 0.0 0.0 0.00 0.00 0.00 86 1011.6
20260503040027 56 282 0.0 0.0 0.00 0.00 0.00 87 1011.3
20260503034527 55 286 0.0 0.0 0.00 0.00 0.00 86 1011.0
20260503033028 55 265 0.0 0.0 0.00 0.00 0.00 86 1010.8
20260503031526 55 264 0.0 1.7 0.00 0.00 0.00 85 1010.7
20260503030028 56 276 0.0 2.6 0.00 0.00 0.00 84 1010.6
20260503024524 56 291 0.9 3.5 0.00 0.00 0.00 83 1010.5
20260503023024 57 287 0.9 6.1 0.00 0.00 0.00 82 1010.4
20260503021525 57 284 0.0 4.3 0.00 0.00 0.00 82 1010.3
20260503020023 57 279 0.0 6.1 0.00 0.00 0.00 81 1010.4
20260503014521 58 282 0.9 8.7 0.00 0.00 0.00 81 1010.5
20260503013020 58 222 1.7 10.4 0.00 0.00 0.00 80 1010.6
20260503011521 59 242 2.6 7.8 0.00 0.00 0.00 79 1010.6
20260503010022 59 313 4.3 10.4 0.00 0.00 0.00 77 1010.7
20260503004518 60 247 2.6 9.6 0.00 0.00 0.00 77 1010.6
20260503003017 61 257 2.6 9.6 0.00 0.00 0.00 75 1010.7
20260503001515 61 214 1.7 9.6 0.00 0.00 0.00 75 1010.8
20260503000015 62 205 1.7 8.7 0.00 0.00 0.00 75 1011.0
20260502234520 62 250 2.6 9.6 0.00 0.00 0.00 75 1011.1
20260502233010 62 240 1.7 9.6 0.00 0.00 0.00 75 1011.3
20260502231510 62 298 3.5 10.4 0.00 0.00 0.00 75 1011.5
20260502230018 62 272 2.6 7.0 0.00 0.00 0.00 76 1011.7
20260502224506 62 229 3.5 8.7 0.00 0.00 0.00 76 1012.0
20260502223002 62 232 1.7 7.0 0.00 0.00 0.00 78 1012.3
20260502221603 62 229 2.6 5.2 0.00 0.00 0.00 77 1012.5
20260502220059 62 258 0.9 6.1 0.00 0.00 0.00 78 1012.8
20260502214556 62 238 0.9 7.8 0.00 0.00 0.00 79 1013.0
20260502213055 61 256 2.6 7.0 0.00 0.00 0.00 80 1013.1
20260502211553 61 232 1.7 7.0 0.00 0.00 0.00 82 1013.2
20260502210105 60 254 1.7 7.0 0.00 0.00 0.00 85 1013.3
20260502204554 60 211 1.7 6.1 0.00 0.00 0.00 85 1013.6
20260502203047 59 202 2.6 7.8 0.00 0.00 0.00 85 1013.9
20260502201551 59 230 0.9 6.1 0.00 0.00 0.00 87 1014.1
20260502200047 59 210 1.7 6.1 0.00 0.00 0.00 87 1014.4
20260502194542 58 240 1.7 7.0 0.00 0.00 0.00 87 1014.5